Location: Unspecified
(54.1780°N, 0.0000°E)
Time: 22:27:37
(UTC+00:00)

Tiros 1 - Pass Details

Date: 24 June 2019
Orbit: 630 x 664 km, 48.4° (Epoch: 17 July)

Event Time Altitude Azimuth Distance (km) Brightness Sun altitude
Rises 03:38:34 0° 272° (W) 2,934 10.1 0.4°
Reaches altitude 10° 03:41:15 10° 259° (W) 2,019 9.2 0.7°
Maximum altitude 03:44:56 24° 206° (SSW) 1,327 8.3 1.1°
Drops below altitude 10° 03:48:35 10° 154° (SSE) 2,005 9.6 1.5°
Sets 03:51:15 0° 140° (SE) 2,908 10.5 1.8°
